Zurück zum Katalog

STARLINK-5845

AktivKommunikationVLEO
NORAD 57050·PAYLOAD·🇺🇸 United States

Gestartet Jun 22, 2023 von Vandenberg Space Force Base

Loading…

Nächste Überflüge (nächste 24 Stunden)

TLE

AktuellSource: CelesTrak SupGP

Epoche: Sep 14, 2026, 20:49 UTC

1 57050C 23088C   26257.86784722 -.00017461  00000+0 -63253-3 0  2573
2 57050  43.0003 122.1686 0001183 233.6839 211.8158 15.27581507    10

Verfolge STARLINK-5845 in Echtzeit mit AllMySat

Download on the App Store